Location: Monrovia
(34.7865°N, 86.7139°W)
Time: 00:56:15
(UTC+00:00)

ARIANE 5 R/B - Pass Details

Date: 14 July 2020
Orbit: 749 x 794 km, 98.6° (Epoch: 12 August)

Event Time Altitude Azimuth Distance (km) Brightness Sun altitude
Rises 09:35:14 0° 356° (N) 3,238 6.3 -12.8°
Reaches altitude 10° 09:37:59 10° 342° (NNW) 2,316 5.2 -12.4°
Maximum altitude 09:41:50 22° 293° (WNW) 1,637 3.9 -11.7°
Enters shadow 09:44:50 14° 251° (WSW) 2,081 4.1 -11.2°
